Time,TemperatureF,DewpointF,PressureIn,WindDirection,WindDirectionDegrees,WindSpeedMPH,WindSpeedGustMPH,Humidity,HourlyPrecipIn,Conditions,Clouds,dailyrainin,SoftwareType,DateUTC
2013-01-12 00:02:00,34.0,28.0,29.81,NNE,17,8.0,14.0,79,0.00,,,0.01,,2013-01-12 06:02:00,
2013-01-12 00:12:00,34.0,28.0,29.81,NNE,17,8.0,14.0,79,0.00,,,0.01,,2013-01-12 06:12:00,
2013-01-12 00:22:00,34.0,28.0,29.83,NNE,27,6.0,11.0,80,0.00,,,0.01,,2013-01-12 06:22:00,
2013-01-12 00:32:00,34.0,27.0,29.85,SE,135,5.0,14.0,76,0.00,,,0.01,,2013-01-12 06:32:00,
2013-01-12 00:42:00,34.0,27.0,29.85,SE,135,5.0,14.0,76,0.00,,,0.01,,2013-01-12 06:42:00,
2013-01-12 00:53:00,34.0,27.0,29.85,SE,135,5.0,14.0,76,0.00,,,0.01,,2013-01-12 06:53:00,
2013-01-12 01:02:00,31.0,25.0,29.87,NE,55,3.0,8.0,79,0.00,,,0.01,,2013-01-12 07:02:00,
2013-01-12 01:12:00,31.0,25.0,29.87,NE,55,3.0,8.0,79,0.00,,,0.01,,2013-01-12 07:12:00,
2013-01-12 01:22:00,30.0,25.0,29.89,NE,46,3.0,9.0,81,0.00,,,0.01,,2013-01-12 07:22:00,
2013-01-12 01:32:00,30.0,25.0,29.90,NNE,22,2.0,6.0,81,0.00,,,0.01,,2013-01-12 07:32:00,
2013-01-12 01:42:00,30.0,25.0,29.90,NNE,22,2.0,6.0,81,0.00,,,0.01,,2013-01-12 07:42:00,
2013-01-12 01:52:00,29.0,23.0,29.91,NNE,30,6.0,11.0,78,0.00,,,0.01,,2013-01-12 07:52:00,
2013-01-12 02:02:00,29.0,23.0,29.90,NE,36,4.0,12.0,79,0.00,,,0.01,,2013-01-12 08:02:00,
2013-01-12 02:12:00,29.0,23.0,29.90,NE,36,4.0,12.0,79,0.00,,,0.01,,2013-01-12 08:12:00,
2013-01-12 02:22:00,28.0,22.0,29.94,NE,38,0.0,7.0,79,0.00,,,0.01,,2013-01-12 08:22:00,
2013-01-12 02:32:00,28.0,20.0,29.95,North,11,7.0,12.0,71,0.00,,,0.01,,2013-01-12 08:32:00,
2013-01-12 02:42:00,28.0,20.0,29.95,North,11,7.0,12.0,71,0.00,,,0.01,,2013-01-12 08:42:00,
2013-01-12 02:53:00,27.0,19.0,29.97,North,5,2.0,8.0,70,0.00,,,0.01,,2013-01-12 08:53:00,
2013-01-12 03:02:00,27.0,20.0,29.97,NNE,29,3.0,7.0,73,0.00,,,0.01,,2013-01-12 09:02:00,
2013-01-12 03:12:00,27.0,20.0,29.97,NNE,29,3.0,7.0,73,0.00,,,0.01,,2013-01-12 09:12:00,
2013-01-12 03:22:00,26.0,19.0,29.98,NE,36,2.0,5.0,75,0.00,,,0.01,,2013-01-12 09:22:00,
2013-01-12 03:32:00,26.0,19.0,29.98,NE,42,4.0,6.0,76,0.00,,,0.01,,2013-01-12 09:32:00,
2013-01-12 03:42:00,26.0,19.0,29.98,NE,42,4.0,6.0,76,0.00,,,0.01,,2013-01-12 09:42:00,
2013-01-12 03:52:00,26.0,19.0,29.98,NNE,32,5.0,10.0,74,0.00,,,0.01,,2013-01-12 09:52:00,
2013-01-12 04:02:00,26.0,19.0,29.98,NNE,32,5.0,10.0,74,0.00,,,0.01,,2013-01-12 10:02:00,
2013-01-12 04:12:00,26.0,19.0,29.98,NNE,32,5.0,10.0,74,0.00,,,0.01,,2013-01-12 10:12:00,
2013-01-12 04:22:00,26.0,18.0,30.00,NNE,30,3.0,8.0,72,0.00,,,0.01,,2013-01-12 10:22:00,
2013-01-12 04:32:00,26.0,19.0,30.01,NNE,27,4.0,8.0,73,0.00,,,0.01,,2013-01-12 10:32:00,
2013-01-12 04:42:00,26.0,19.0,30.01,NNE,27,4.0,8.0,73,0.00,,,0.01,,2013-01-12 10:42:00,
2013-01-12 04:52:00,25.0,18.0,30.01,NNE,28,4.0,8.0,73,0.00,,,0.01,,2013-01-12 10:52:00,
2013-01-12 05:02:00,25.0,18.0,30.01,NNE,30,4.0,7.0,73,0.00,,,0.01,,2013-01-12 11:02:00,
2013-01-12 05:12:00,25.0,18.0,30.01,NNE,30,4.0,7.0,73,0.00,,,0.01,,2013-01-12 11:12:00,
2013-01-12 05:22:00,25.0,18.0,30.01,NNE,30,4.0,7.0,73,0.00,,,0.01,,2013-01-12 11:22:00,
2013-01-12 05:32:00,25.0,17.0,30.00,NE,36,4.0,8.0,72,0.00,,,0.01,,2013-01-12 11:32:00,
2013-01-12 05:43:00,25.0,17.0,30.00,NE,36,4.0,8.0,72,0.00,,,0.01,,2013-01-12 11:43:00,
2013-01-12 05:53:00,25.0,18.0,30.01,NNE,18,2.0,6.0,73,0.00,,,0.01,,2013-01-12 11:53:00,
2013-01-12 06:03:00,25.0,18.0,30.01,NE,38,2.0,5.0,75,0.00,,,0.01,,2013-01-12 12:03:00,
2013-01-12 06:12:00,25.0,18.0,30.01,NE,38,2.0,5.0,75,0.00,,,0.01,,2013-01-12 12:12:00,
2013-01-12 06:22:00,25.0,18.0,30.01,NNE,32,3.0,7.0,74,0.00,,,0.01,,2013-01-12 12:22:00,
2013-01-12 06:32:00,25.0,17.0,30.02,NNE,30,3.0,7.0,72,0.00,,,0.01,,2013-01-12 12:32:00,
2013-01-12 06:42:00,25.0,17.0,30.02,NNE,30,3.0,7.0,72,0.00,,,0.01,,2013-01-12 12:42:00,
2013-01-12 06:52:00,24.0,17.0,30.02,NNE,26,3.0,5.0,73,0.00,,,0.01,,2013-01-12 12:52:00,
2013-01-12 07:02:00,24.0,18.0,30.03,NNE,28,3.0,5.0,76,0.00,,,0.01,,2013-01-12 13:02:00,
2013-01-12 07:12:00,24.0,18.0,30.03,NNE,28,3.0,5.0,76,0.00,,,0.01,,2013-01-12 13:12:00,
2013-01-12 07:22:00,24.0,17.0,30.04,NE,43,5.0,8.0,75,0.00,,,0.01,,2013-01-12 13:22:00,
2013-01-12 07:33:00,24.0,16.0,30.04,NE,37,5.0,11.0,71,0.00,,,0.00,,2013-01-12 13:33:00,
2013-01-12 07:42:00,24.0,16.0,30.04,NE,37,5.0,11.0,71,0.00,,,0.00,,2013-01-12 13:42:00,
2013-01-12 07:53:00,24.0,16.0,30.04,NNE,26,4.0,10.0,70,0.00,,,0.00,,2013-01-12 13:53:00,
2013-01-12 08:02:00,24.0,16.0,30.07,NNE,32,3.0,7.0,70,0.00,,,0.00,,2013-01-12 14:02:00,
2013-01-12 08:12:00,24.0,16.0,30.07,NNE,32,3.0,7.0,70,0.00,,,0.00,,2013-01-12 14:12:00,
2013-01-12 08:22:00,24.0,16.0,30.07,NE,55,4.0,8.0,71,0.00,,,0.00,,2013-01-12 14:22:00,
2013-01-12 08:33:00,25.0,18.0,30.08,NNE,28,3.0,7.0,73,0.00,,,0.00,,2013-01-12 14:33:00,
2013-01-12 08:43:00,25.0,18.0,30.08,NNE,28,3.0,7.0,73,0.00,,,0.00,,2013-01-12 14:43:00,
2013-01-12 08:53:00,24.0,18.0,30.07,NE,40,4.0,7.0,78,0.00,,,0.00,,2013-01-12 14:53:00,
2013-01-12 09:03:00,24.0,18.0,30.08,NNE,32,5.0,11.0,77,0.00,,,0.00,,2013-01-12 15:03:00,
2013-01-12 09:12:00,24.0,18.0,30.08,NNE,32,5.0,11.0,77,0.00,,,0.00,,2013-01-12 15:12:00,
2013-01-12 09:22:00,25.0,18.0,30.09,NNE,28,7.0,12.0,73,0.00,,,0.00,,2013-01-12 15:22:00,
2013-01-12 09:33:00,25.0,17.0,30.10,NE,38,4.0,12.0,70,0.00,,,0.00,,2013-01-12 15:33:00,
2013-01-12 09:43:00,25.0,17.0,30.10,NE,38,4.0,12.0,70,0.00,,,0.00,,2013-01-12 15:43:00,
2013-01-12 09:53:00,25.0,16.0,30.10,NNE,20,6.0,11.0,67,0.00,,,0.00,,2013-01-12 15:53:00,
2013-01-12 10:03:00,25.0,16.0,30.11,NNE,29,5.0,9.0,67,0.00,,,0.00,,2013-01-12 16:03:00,
2013-01-12 10:12:00,25.0,16.0,30.11,NNE,29,5.0,9.0,67,0.00,,,0.00,,2013-01-12 16:12:00,
2013-01-12 10:23:00,25.0,16.0,30.11,NNE,33,4.0,10.0,67,0.00,,,0.00,,2013-01-12 16:23:00,
2013-01-12 10:33:00,25.0,15.0,30.12,NNE,24,5.0,8.0,65,0.00,,,0.00,,2013-01-12 16:33:00,
2013-01-12 10:42:00,25.0,15.0,30.12,NNE,24,5.0,8.0,65,0.00,,,0.00,,2013-01-12 16:42:00,
2013-01-12 10:52:00,25.0,15.0,30.12,NE,37,5.0,9.0,66,0.00,,,0.00,,2013-01-12 16:52:00,
2013-01-12 11:02:00,26.0,16.0,30.12,NE,38,6.0,11.0,65,0.00,,,0.00,,2013-01-12 17:02:00,
2013-01-12 11:12:00,26.0,16.0,30.12,NE,38,6.0,11.0,65,0.00,,,0.00,,2013-01-12 17:12:00,
2013-01-12 11:22:00,26.0,15.0,30.11,NNE,23,7.0,12.0,63,0.00,,,0.00,,2013-01-12 17:22:00,
2013-01-12 11:33:00,26.0,15.0,30.11,North,355,6.0,12.0,63,0.00,,,0.00,,2013-01-12 17:33:00,
2013-01-12 11:43:00,26.0,15.0,30.11,North,355,6.0,12.0,63,0.00,,,0.00,,2013-01-12 17:43:00,
2013-01-12 11:53:00,26.0,16.0,30.10,NNE,23,7.0,14.0,64,0.00,,,0.00,,2013-01-12 17:53:00,
2013-01-12 12:03:00,26.0,16.0,30.09,NE,43,7.0,12.0,64,0.00,,,0.00,,2013-01-12 18:03:00,
2013-01-12 12:12:00,26.0,16.0,30.09,NE,43,7.0,12.0,64,0.00,,,0.00,,2013-01-12 18:12:00,
2013-01-12 12:23:00,27.0,17.0,30.07,NNE,28,9.0,13.0,66,0.00,,,0.00,,2013-01-12 18:23:00,
2013-01-12 12:33:00,26.0,17.0,30.06,NNE,32,9.0,13.0,67,0.00,,,0.00,,2013-01-12 18:33:00,
2013-01-12 12:42:00,26.0,17.0,30.06,NNE,32,9.0,13.0,67,0.00,,,0.00,,2013-01-12 18:42:00,
2013-01-12 12:52:00,26.0,16.0,30.06,NE,34,4.0,15.0,65,0.00,,,0.00,,2013-01-12 18:52:00,
2013-01-12 13:03:00,26.0,15.0,30.06,NE,37,7.0,13.0,63,0.00,,,0.00,,2013-01-12 19:03:00,
2013-01-12 13:12:00,26.0,15.0,30.06,NE,37,7.0,13.0,63,0.00,,,0.00,,2013-01-12 19:12:00,
2013-01-12 13:23:00,26.0,15.0,30.06,NE,36,7.0,13.0,62,0.00,,,0.00,,2013-01-12 19:23:00,
2013-01-12 13:33:00,27.0,16.0,30.06,NE,36,7.0,12.0,62,0.00,,,0.00,,2013-01-12 19:33:00,
2013-01-12 13:43:00,27.0,16.0,30.06,NE,36,7.0,12.0,62,0.00,,,0.00,,2013-01-12 19:43:00,
2013-01-12 13:52:00,27.0,16.0,30.05,NNE,32,8.0,12.0,62,0.00,,,0.00,,2013-01-12 19:52:00,
2013-01-12 14:03:00,26.0,15.0,30.05,NE,46,8.0,14.0,62,0.00,,,0.00,,2013-01-12 20:03:00,
2013-01-12 14:12:00,26.0,15.0,30.05,NE,46,8.0,14.0,62,0.00,,,0.00,,2013-01-12 20:12:00,
2013-01-12 14:22:00,27.0,15.0,30.03,NNE,26,10.0,14.0,60,0.00,,,0.00,,2013-01-12 20:22:00,
2013-01-12 14:33:00,26.0,13.0,30.04,NNE,27,8.0,13.0,58,0.00,,,0.00,,2013-01-12 20:33:00,
2013-01-12 14:42:00,26.0,13.0,30.04,NNE,27,8.0,13.0,58,0.00,,,0.00,,2013-01-12 20:42:00,
2013-01-12 14:51:00,27.0,15.0,30.03,North,9,6.0,11.0,59,0.00,,,0.00,,2013-01-12 20:51:00,
2013-01-12 14:53:00,26.0,14.0,30.05,ENE,57,8.0,13.0,59,0.00,,,0.00,,2013-01-12 20:53:00,
2013-01-12 15:03:00,27.0,14.0,30.03,NNE,31,7.0,12.0,58,0.00,,,0.00,,2013-01-12 21:03:00,
2013-01-12 15:12:00,27.0,14.0,30.03,NNE,31,7.0,12.0,58,0.00,,,0.00,,2013-01-12 21:12:00,
2013-01-12 15:22:00,27.0,15.0,30.03,North,9,6.0,11.0,59,0.00,,,0.00,,2013-01-12 21:22:00,
2013-01-12 15:33:00,27.0,15.0,30.03,North,9,6.0,11.0,59,0.00,,,0.00,,2013-01-12 21:33:00,
2013-01-12 15:43:00,27.0,15.0,30.03,North,9,6.0,11.0,59,0.00,,,0.00,,2013-01-12 21:43:00,
2013-01-12 16:03:00,26.0,14.0,30.07,NNE,17,6.0,11.0,60,0.00,,,0.00,,2013-01-12 22:03:00,
2013-01-12 16:12:00,26.0,14.0,30.07,NNE,17,6.0,11.0,60,0.00,,,0.00,,2013-01-12 22:12:00,
2013-01-12 16:22:00,26.0,14.0,30.09,NNE,29,6.0,10.0,60,0.00,,,0.00,,2013-01-12 22:22:00,
2013-01-12 16:33:00,26.0,14.0,30.08,NNE,13,2.0,11.0,60,0.00,,,0.00,,2013-01-12 22:33:00,
2013-01-12 16:43:00,26.0,14.0,30.08,NNE,13,2.0,11.0,60,0.00,,,0.00,,2013-01-12 22:43:00,
2013-01-12 16:52:00,26.0,14.0,30.09,North,11,4.0,10.0,60,0.00,,,0.00,,2013-01-12 22:52:00,
2013-01-12 17:03:00,26.0,14.0,30.11,NNE,26,6.0,10.0,61,0.00,,,0.00,,2013-01-12 23:03:00,
2013-01-12 17:12:00,26.0,14.0,30.11,NNE,26,6.0,10.0,61,0.00,,,0.00,,2013-01-12 23:12:00,
2013-01-12 17:22:00,26.0,14.0,30.09,NNE,32,7.0,11.0,61,0.00,,,0.00,,2013-01-12 23:22:00,
2013-01-12 17:33:00,25.0,13.0,30.11,NNE,12,5.0,11.0,61,0.00,,,0.00,,2013-01-12 23:33:00,
2013-01-12 17:43:00,25.0,13.0,30.11,NNE,12,5.0,11.0,61,0.00,,,0.00,,2013-01-12 23:43:00,
2013-01-12 17:53:00,25.0,14.0,30.09,NE,39,6.0,11.0,62,0.00,,,0.00,,2013-01-12 23:53:00,
2013-01-12 18:03:00,25.0,14.0,30.12,NNW,348,3.0,10.0,63,0.00,,,0.00,,2013-01-13 00:03:00,
2013-01-12 18:12:00,25.0,14.0,30.12,NNW,348,3.0,10.0,63,0.00,,,0.00,,2013-01-13 00:12:00,
2013-01-12 18:22:00,24.0,13.0,30.10,North,9,6.0,10.0,63,0.00,,,0.00,,2013-01-13 00:22:00,
2013-01-12 18:33:00,24.0,14.0,30.12,North,355,3.0,8.0,65,0.00,,,0.00,,2013-01-13 00:33:00,
2013-01-12 18:43:00,24.0,14.0,30.12,North,355,3.0,8.0,65,0.00,,,0.00,,2013-01-13 00:43:00,
2013-01-12 18:52:00,24.0,14.0,30.12,NNE,19,5.0,12.0,64,0.00,,,0.00,,2013-01-13 00:52:00,
2013-01-12 19:02:00,23.0,13.0,30.12,NNE,18,3.0,9.0,65,0.00,,,0.00,,2013-01-13 01:02:00,
2013-01-12 19:12:00,23.0,13.0,30.12,NNE,18,3.0,9.0,65,0.00,,,0.00,,2013-01-13 01:12:00,
2013-01-12 19:22:00,23.0,13.0,30.16,NNE,21,3.0,9.0,64,0.00,,,0.00,,2013-01-13 01:22:00,
2013-01-12 19:33:00,23.0,13.0,30.12,NNE,26,4.0,8.0,65,0.00,,,0.00,,2013-01-13 01:33:00,
2013-01-12 19:43:00,23.0,13.0,30.12,NNE,26,4.0,8.0,65,0.00,,,0.00,,2013-01-13 01:43:00,
2013-01-12 19:52:00,22.0,12.0,30.14,North,5,4.0,10.0,65,0.00,,,0.00,,2013-01-13 01:52:00,
2013-01-12 20:02:00,22.0,12.0,30.13,NNE,19,5.0,12.0,65,0.00,,,0.00,,2013-01-13 02:02:00,
2013-01-12 20:12:00,22.0,12.0,30.13,NNE,19,5.0,12.0,65,0.00,,,0.00,,2013-01-13 02:12:00,
2013-01-12 20:22:00,22.0,12.0,30.12,NE,36,7.0,12.0,65,0.00,,,0.00,,2013-01-13 02:22:00,
2013-01-12 20:32:00,21.0,11.0,30.15,NE,51,6.0,15.0,66,0.00,,,0.00,,2013-01-13 02:32:00,
2013-01-12 20:43:00,21.0,11.0,30.15,NE,51,6.0,15.0,66,0.00,,,0.00,,2013-01-13 02:43:00,
2013-01-12 20:52:00,20.0,11.0,30.13,NNE,23,6.0,12.0,68,0.00,,,0.00,,2013-01-13 02:52:00,
2013-01-12 21:02:00,20.0,11.0,30.15,North,5,1.0,11.0,68,0.00,,,0.00,,2013-01-13 03:02:00,
2013-01-12 21:12:00,20.0,11.0,30.15,North,5,1.0,11.0,68,0.00,,,0.00,,2013-01-13 03:12:00,
2013-01-12 21:22:00,19.0,11.0,30.17,North,5,2.0,6.0,70,0.00,,,0.00,,2013-01-13 03:22:00,
2013-01-12 21:33:00,19.0,11.0,30.17,North,11,3.0,8.0,70,0.00,,,0.00,,2013-01-13 03:33:00,
2013-01-12 21:43:00,19.0,11.0,30.17,North,11,3.0,8.0,70,0.00,,,0.00,,2013-01-13 03:43:00,
2013-01-12 21:52:00,19.0,11.0,30.17,NNW,336,2.0,7.0,71,0.00,,,0.00,,2013-01-13 03:52:00,
2013-01-12 22:02:00,18.0,10.0,30.16,NNE,13,2.0,5.0,71,0.00,,,0.00,,2013-01-13 04:02:00,
2013-01-12 22:12:00,18.0,10.0,30.16,NNE,13,2.0,5.0,71,0.00,,,0.00,,2013-01-13 04:12:00,
2013-01-12 22:22:00,18.0,11.0,30.16,NNE,26,2.0,5.0,72,0.00,,,0.00,,2013-01-13 04:22:00,
2013-01-12 22:33:00,18.0,11.0,30.16,NNE,25,3.0,6.0,72,0.00,,,0.00,,2013-01-13 04:33:00,
2013-01-12 22:42:00,18.0,11.0,30.16,NNE,25,3.0,6.0,72,0.00,,,0.00,,2013-01-13 04:42:00,
2013-01-12 22:52:00,18.0,11.0,30.16,NNE,30,3.0,6.0,73,0.00,,,0.00,,2013-01-13 04:52:00,
2013-01-12 23:03:00,17.0,10.0,30.18,NE,40,2.0,6.0,75,0.00,,,0.00,,2013-01-13 05:03:00,
2013-01-12 23:12:00,17.0,10.0,30.18,NE,40,2.0,6.0,75,0.00,,,0.00,,2013-01-13 05:12:00,
2013-01-12 23:22:00,17.0,11.0,30.18,NNE,23,1.0,4.0,76,0.00,,,0.00,,2013-01-13 05:22:00,
2013-01-12 23:32:00,17.0,11.0,30.18,NNE,30,3.0,5.0,76,0.00,,,0.00,,2013-01-13 05:32:00,
2013-01-12 23:42:00,17.0,11.0,30.18,NNE,30,3.0,5.0,76,0.00,,,0.00,,2013-01-13 05:42:00,
2013-01-12 23:52:00,17.0,11.0,30.19,NNE,32,2.0,5.0,76,0.00,,,0.00,,2013-01-13 05:52:00,